Regional Weather Roundup
Issued by NWS

Current Version | Previous Version | Text Only | Print | Product List | Glossary On
Versions: 1 2 3 4 5 6 7 8 9 10 11 12 13 14 15 16 17 18 19 20 21 22 23 24 25 26 27
000
ASUS45 KSLC 060310
RWRUT

UTAH REGIONAL WEATHER ROUNDUP
NATIONAL WEATHER SERVICE SALT LAKE CITY UT
800 PM MST MON DEC 05 2016

UTZ001>011-023>025-060400-

NORTHERN UTAH

CITY           SKY/WX    TMP DP  RH WIND       PRES   REMARKS
BRIGHAM CITY     N/A     22   9  57 SE3       30.03F
HILL AFB       MOCLDY    20  -1  39 E13       29.99F WCI   7
LOGAN          CLEAR    N/A N/A N/A S7        30.02F
OGDEN          PTCLDY    18   6  59 S5        30.00F WCI  11
SALT LAKE CITY MOCLDY    29   7  39 E5        30.02S WCI  24
TOOELE VALLEY  CLOUDY    28  19  69 S3        30.01F
WENDOVER       CLEAR     27   7  43 W3        30.01S
HEBER CITY     CLOUDY    23   0  36 E5        29.96S WCI  17
WEST JORDAN    CLOUDY    27  17  63 CALM      30.01F

$$

UTZ011>015-024>027-060400-

CENTRAL/NORTHEAST UTAH

CITY           SKY/WX    TMP DP  RH WIND       PRES   REMARKS
PROVO AIRPORT  CLOUDY    28  12  50 NW7       30.02S WCI  21
MOAB/CANYONLAN CLEAR     33   9  36 E9        29.92R WCI  25
DELTA          CLEAR     25   0  33 N6        29.97F WCI  18
PRICE          MOCLDY    24   4  42 NE13      29.90S WCI  12
ROOSEVELT      CLEAR     21  -8  27 N3        30.02R
VERNAL         CLEAR     20  -6  31 NE6       30.00R WCI  12

$$

UTZ013>016-019>022-027-060400-

SOUTHERN UTAH

CITY           SKY/WX    TMP DP  RH WIND       PRES   REMARKS
BRYCE CANYON   CLOUDY    22  11  62 W6        29.91S WCI  14
CEDAR CITY     CLOUDY    28  15  58 W3        29.91S
MILFORD        PTCLDY    26   4  38 NW10      29.95S WCI  16
ST GEORGE      CLOUDY    48  18  29 NW3       29.91R
HANKSVILLE     CLEAR     34  10  37 CALM      29.94R
BLANDING       MOCLDY    31  18  58 N9        29.94S WCI  23

$$

REGIONAL REPORTS     COLORADO/ARIZONA

CITY           SKY/WX    TMP DP  RH WIND       PRES   REMARKS
CRAIG, CO      CLOUDY     8  -6  52 W3        29.97R
GRAND JUNCTION CLEAR     28   7  41 W8        29.95R WCI  20
RIFLE, CO      CLOUDY    27   4  37 NW16G24   29.94R WCI  15
MONTROSE, CO   CLEAR     28  11  48 CALM      29.93R
CORTEZ, CO     CLOUDY    28  21  75 NE6       29.88S WCI  22
COLORADO CITY    N/A     34  23  64 CALM      29.94R
PAGE, AZ       CLOUDY    47  14  26 CALM      29.86S
GRAND CANYON   CLOUDY    30  23  75 CALM      29.96S
KINGMAN, AZ    CLOUDY    46  14  27 S7        29.92S
FLAGSTAFF, AZ  MOCLDY    30  16  56 CALM      29.98R

$$

REGIONAL REPORTS    NEVADA/IDAHO/WYOMING

CITY           SKY/WX    TMP DP  RH WIND       PRES   REMARKS
LAS VEGAS, NV  CLOUDY    54  19  25 CALM      29.87S
ELY, NY        CLEAR     18  11  74 S8        29.90R WCI   8
ELKO, NV       MOCLDY    24  12  60 CALM      29.93F
POCATELLO, ID  CLEAR     14   5  67 SW7       30.02S WCI   4
BURLEY, ID     CLEAR     14  10  84 CALM      30.01S
FORT BRIDGER,    N/A     13 -12  32 CALM      29.96S
EVANSTON, WY   CLOUDY    11 -19  25 SE5       29.92S WCI   3
ROCK SPRINGS,  CLEAR      8  -6  52 W10       29.93R WCI  -6

$$




USA.gov is the U.S. government's official web portal to all federal, state and local government web resources and services.